www.pogodaiklimat.ru

Погода и климат >> Архив погоды >> Китай >> Синьцзян-Уйгурский автономный район >> Карамай


ПОГОДА в Карамае

  • Прогноз погоды в Карамае
  • Монитор погоды в Карамае

АРХИВ ПОГОДЫ в Карамае

Время (UTC), дата Ветер
(напр.,м/с)
 
Видим.   Явления Облачность Т
(С)
Тd
(С)
f
(%)
Тe
(С)
Тes
(С)
Комфортность P
(гПа)
Po
(гПа)
Тmin
(С)
Tmax
(С)
R
(мм)
R24
(мм)
S
(см)
00 16.04 СЗ 9
{17}
30 км слаб. морось 6/6 2000 м
[]
+17.7 +8.6 55 +17 +17 999.6 948.9 0.0
03 16.04 СЗ 7
{23}
30 км 9/9 2000 м
[]
+19.2 +3.4 35 +19 +19 1002.4 953.5
06 16.04 З 5
{23}
30 км 9/9 2000 м
[]
+19.8 +4.7 37 +20 +21 1005.6 954.3 +17.7
09 16.04 Ю 4
{18}
12 км 9/9 2000 м
[]
+19.9 +7.0 43 +21 +21 комфорт 1005.6 956.6
12 16.04 З 5 30 км 9/9
[]
+20.9 +5.7 37 +22 +22 комфорт 1006.0 954.5
15 16.04 СЗ 5 30 км н/о +18.1 +5.0 42 +18 +18 1008.2 958.8
18 16.04 СЗ 4 30 км ?/? +17.4 +3.7 40 +17 +17 1008.9 957.2 +21.2
21 16.04 СЗ 5 30 км н/о +16.6 +4.3 44 +16 +16 1008.6 958.9
00 17.04 В 1 30 км в посл. час дождь 9/9 2000 м
[]
+11.0 +5.7 70 +11 +11 1012.0 959.6 0.2
03 17.04 С 2 30 км 9/9
[]
+11.3 +6.6 73 +10 +11 1013.8 963.0
06 17.04 Ю 3 30 км 9/9 2000 м
[]
+12.9 +8.2 73 +12 +13 1014.0 961.4 +10.7 0.0
09 17.04 Ю 5 30 км 9/9 2000 м
[]
+15.1 +10.1 72 +14 +14 1013.0 962.9
12 17.04 ЮЗ 3 30 км 9/9 2000 м
[]
+17.2 +7.0 51 +17 +17 1013.7 960.9
15 17.04 Ю 2 30 км н/о +15.5 +7.8 60 +15 +15 1015.3 965.1
18 17.04 С 2 30 км ?/? +12.5 +7.2 70 +12 +12 1015.3 962.2 +17.8
21 17.04 СЗ 2 30 км н/о +11.0 +4.5 64 +10 +10 1013.9 963.0
00 18.04 С 1 30 км 3/3
[]
+9.5 +4.9 73 +9 +9 1013.6 960.7
03 18.04 СВ 1 30 км 3/3
[]
+14.6 +7.4 62 +15 +21 1013.8 963.6
06 18.04 Ю 3 30 км 8/8
[]
+18.6 +6.4 45 +19 +22 1013.0 960.5 +9.5
09 18.04 Ю 5 30 км 4/4
[]
+23.1 +6.0 33 +24 +27 комфорт 1010.6 961.9
12 18.04 З 2 30 км слаб. дождь {морось} 9/9 2000 м
[]
+18.4 +9.5 56 +19 +19 1012.8 960.0 0.0
15 18.04 СЗ 9 30 км н/о +18.0 +3.1 37 +17 +17 1014.5 964.8
18 18.04 СЗ 6 30 км ?/? +15.1 +0.5 37 +14 +14 1015.8 963.4 +23.3
21 18.04 В 3 18 км н/о +7.6 -0.9 55 +5 +5 1018.9 967.2
00 19.04 В 2 30 км ясно +5.5 -3.6 52 +4 +4 1021.3 967.7 0.0
03 19.04 В 3 30 км ясно +7.6 -6.2 37 +6 +12 1021.5 969.6
06 19.04 В 3 30 км ?/? +10.8 -11.6 19 +10 +10 1020.2 966.9 +5.3
09 19.04 В 2 30 км 6/6
[]
+14.5 -8.8 19 +15 +19 1017.4 967.0
12 19.04 В 1 30 км 9/9 2000 м
[]
+15.5 -7.4 20 +16 +17 1015.5 962.0
15 19.04 З 1 30 км н/о +14.6 -7.5 21 +15 +15 1015.2 964.9
18 19.04 штиль 0 30 км ?/? +13.0 -6.6 25 +13 +13 1013.6 960.4 +15.9
21 19.04 СЗ 1 30 км н/о +12.6 -3.6 32 +13 +13 1012.8 962.3
00 20.04 штиль 0 30 км в посл. час дождь 9/9 2000 м
[]
+11.2 +3.0 57 +11 +11 1013.2 960.3 0.0
03 20.04 ЮЗ 2 30 км 9/9 2000 м
[]
+13.6 -2.8 32 +13 +14 1013.3 962.9
06 20.04 Ю 2 30 км 8/8 2000 м
[]
+19.1 -0.3 27 +20 +23 1011.2 958.9 +10.8
09 20.04 Ю 3 30 км 3/3
[]
+21.9 +1.5 26 +22 +28 комфорт 1008.0 959.2
12 20.04 З 4 30 км 9/9 2000 м
[]
+21.8 +2.5 28 +22 +22 комфорт 1008.7 956.6
15 20.04 СЗ 6 30 км н/о +16.3 +7.8 57 +15 +15 1011.2 961.4
18 20.04 СЗ 6 30 км ?/? +16.5 +7.2 54 +15 +15 1011.1 959.1 +22.3
21 20.04 СЗ 5 30 км н/о +15.1 +6.7 57 +14 +14 1010.3 960.3
00 21.04 СЗ 3 30 км 9/9 2000 м
[]
+15.1 +5.9 54 +15 +15 1010.7 958.8 0.0
03 21.04 СВ 2 30 км 9/9 2000 м
[]
+16.6 +5.9 49 +17 +18 1012.3 962.5
06 21.04 СЗ 3 30 км 9/9 2000 м
[]
+18.4 +5.9 44 +19 +20 1011.9 959.8 +14.6
09 21.04 Ю 4 30 км 9/9 2000 м
[]
+19.9 +6.3 41 +21 +21 комфорт 1010.2 961.0
12 21.04 ЮЗ 3 30 км 8/8 2000 м
[]
+19.2 +7.6 47 +20 +20 1009.8 957.8
15 21.04 З 1 30 км н/о +17.7 +6.3 47 +19 +19 1011.2 961.6
18 21.04 СЗ 2 30 км ?/? +16.7 +5.9 49 +17 +17 1011.1 959.1 +20.5
21 21.04 В 4 30 км н/о +13.5 +5.2 57 +12 +12 1011.9 961.6
00 22.04 СВ 2 30 км слаб. дождь 9/9 2000 м
[]
+11.4 +5.9 69 +10 +10 1013.6 961.0 0.0
03 22.04 СВ 3 30 км слаб. дождь {морось} 9/9 2000 м
[]
+11.5 +5.6 67 +10 +11 1015.4 964.5
06 22.04 В 1 20 км слаб. дождь {морось} ?/? +12.1 +6.2 67 +12 +12 1016.4 963.5 +11.4 0.3
09 22.04 Ю 2 30 км слаб. дождь 9/9 2000 м
[]
+12.7 +7.2 69 +12 +13 1016.6 965.9
12 22.04 ЮЗ 1 30 км 9/9 2000 м
[]
+13.9 +8.5 70 +14 +14 1017.2 964.0 0.3
15 22.04 З 2 30 км н/о +14.8 +4.5 50 +15 +15 1018.1 967.7
18 22.04 З 3 30 км слаб. дождь {морось} ?/? +12.8 +6.8 67 +12 +12 1018.5 965.2 +16.7 0.1
21 22.04 В 1 18 км слаб. дождь ?/? +10.2 +8.3 88 +10 +10 1018.4 967.2

 

Местоположение метеостанции Карамай (Синьцзян-Уйгурский автономный район, Китай): широта 45.60 долгота 84.85 высота над уровнем моря 428 м.

В архиве по умолчанию представлена погода в Карамае за последнюю неделю. Архивные данные за месяц целиком и за предыдущие месяцы, начиная с января 2011 года, Вы можете получить, выбрав интересующий диапазон дат из раскрывающегося списка и нажав кнопку "Ввод!".


*Определитесь, кто Вы:
робот инопланетянин человек

Внимание! Время в таблицах - всемирное. Для получения местного времени необходимо прибавить поправку, которая равна 8 ч.

Смотрите также архив погоды в соседних городах и на ближайших метеорологических станциях:

Погода в Хобоксаре (Синьцзян-Уйгурский автономный район, Китай) (147 км)
Погода в Тасбастау (Восточно-Казахстанская область, Казахстан) (182 км)
Погода в Цзинхэ (Синьцзян-Уйгурский автономный район, Китай) (188 км)
Погода в Достыке (Алматинская область, Казахстан) (190 км)
Погода в Таченге (Синьцзян-Уйгурский автономный район, Китай) (190 км)
Погода в Бахты (Восточно-Казахстанская область, Казахстан) (200 км)
Погода в Зайсане (Восточно-Казахстанская область, Казахстан) (208 км)
Погода в Узынбулаке (Алматинская область, Казахстан) (209 км)
Погода в Карабулаке (Восточно-Казахстанская область, Казахстан) (217 км)
Погода в Акжаре (Восточно-Казахстанская область, Казахстан) (238 км)

Пояснения к столбцам:

Ветер - указаны скорость ветра в м/с - средняя за 10 мин, порывы в срок и между сроками (в фигурных скобках) и направление, откуда дует ветер: С - северный, СВ - северо-восточный, В - восточный, ЮВ - юго-восточный, Ю - южный, ЮЗ - юго-западный, З - западный, СЗ - северо-западный.
Видимость - горизонтальная дальность видимости в метрах или километрах. При видимости от 1 до 10 км при отсутствии осадков обычно наблюдается дымка, при ухудшении видимости до 1 км и менее - туман. В сухую погоду видимость может ухудшаться дымом, пылью или мглою.
Явления - указаны атмосферные явления, наблюдавшиеся в срок или в последний час перед сроком; фигурными скобками обозначены явления, наблюдавшиеся между сроками (за 1-3 часа до срока); квадратными скобками обозначены град или гололедные отложения с указанием их диаметра в мм.
Облачность - указаны через наклонную черту общая и нижняя облачность в баллах и высота нижней границы облаков в метрах; квадратными скобками обозначены формы облаков: Ci - перистые, Cs - перисто-слоистые, Cc - перисто-кучевые, Ac - высококучевые, As - высокослоистые, Sc - слоисто-кучевые, Ns - слоисто-дождевые, Cu - кучевые, Cb - кучево-дождевые. Подробнее классификацию облаков см. в Атласе облаков (PDF).
T - Температура воздуха - температура, измеренная на высоте 2 м над землей.
Td - Температура точки росы - температура, при понижении до которой содержащийся в воздухе водяной пар достигнет насыщения.
f - Относительная влажность воздуха - влажноcть воздуха, измеренная на высоте 2 м над землей.
Te - Эффективная температура - температура, которую ощущает одетый по сезону человек в тени. Характеристика душности погоды. При расчете учитывается влияние влажности воздуха и скорости ветра на теплоощущения человека.
Tes - Эффективная температура на солнце - температура, которую ощущает человек, с поправкой на солнечный нагрев. Характеристика знойности погоды. Зависит от высоты солнца над горизонтом, облачности и скорости ветра. Ночью, в пасмурную погоду, а также при ветре 12 м/с и более поправка равна нулю.
P - Атмосферное давление - приведенное к уровню моря атмосферное давление.
Po - Атмосферное давление - измеренное на уровне метеостанции атмосферное давление.
Tmin - Минимальная температура - минимум температуры воздуха на высоте 2 м над землей.
Tmax - Максимальная температура - максимум температуры воздуха на высоте 2 м над землей.
R - Количество осадков - Количество выпавших осадков за период времени, мм. При наведении курсора мыши на число - период времени, за который выпало указанное количество осадков.
R24 - Количество осадков - Количество выпавших осадков за 24 часа, мм.
S - Снежный покров - Высота снежного покрова, см. При наведении курсора мыши на число - состояние снежного покрова и степень покрытия местности в баллах.